SCP
0 0 0 0 0 0 0 0 0 -0 -0 0 0 -0 -0 0 0 -0 -0 -0 -0 -0 -0 -0 -0 -0 -0 0 0 0 0 0 0 0 0 0 0 0 0 0 0 0 0 0
1 0 0 0 0 0 0 0 0 -0 0 0 -0 0 0 -0 -0 -0 -0 -0 -0 -0 -0 -0 -0 -0 -0 -0 -0 -0 -0 0 0 0 0 0 0 0 0 0 0 0 0 -0
0 0 0 0 0 0 -0 0 -0 -0 0 0 -0 0 -0 0 -0 -0 -0 -0 -0 -0 -0 -0 -0 -0 -0 -0 -0 -0 -0 -0 0 -0 -0 -0 -0 -0 -0 -0 -0 -0 -0 -0
0 0 0 0 0 0 0 0 0 0 0 -0 0 -0 -0 0 -0 -0 -0 -0 -0 -0 -0 -0 -0 0 -0 -0 -0 -0 -0 -0 -0 -0 0 0 0 0 0 0 0 0 0 0
0 0 0 0 0 0 0 -0 -0 0 -0 0 0 0 -0 0 0 -0 -0 -0 -0 -0 -0 -0 -0 -0 -0 -0 -0 -0 -0 -0 -0 -0 0 0 0 0 0 0 0 0 0 0
0 0 0 0 0 0 0 -0 -0 0 0 0 0 0 -0 0 0 0 -0 -0 -0 -0 -0 -0 -0 -0 -0 -0 -0 -0 -0 -0 -0 -0 -0 -0 0 0 0 -0 -0 -0 -0 -0
0 0 0 0 0 0 0 -0 0 0 0 0 0 -0 -0 -0 -0 0 -0 -0 0 -0 -0 -0 -0 0 0 0 -0 -0 -0 -0 -0 -0 -0 -0 -0 0 -0 0 0 -0 -0 -0
0 0 0 0 0 0 0 0 0 0 0 0 0 0 0 0 0 0 0 0 0 -0 -0 -0 -0 0 0 0 0 0 0 0 -0 -0 -0 -0 -0 -0 0 0 0 0 0 0
0 0 0 0 0 0 0 0 0 0 0 0 0 0 0 0 0 -0 -0 0 0 -0 -0 0 -0 -0 -0 0 0 0 0 0 0 0 0 0 0 0 0 0 0 0 0 0
0 0 0 0 0 0 0 0 0 0 0 0 0 0 0 0 0 0 0 0 0 0 0 0 -0 -0 -0 0 0 0 0 0 0 0 0 0 0 0 0 0 0 0 0 0
0 0 0 0 0 0 -0 0 0 0 0 0 0 0 0 0 0 0 0 0 0 0 0 -0 -0 -0 0 0 -0 -0 0 0 0 0 0 0 0 0 0 0 0 0 0 0
0 0 0 0 0 0 0 -0 -0 0 0 0 0 0 0 0 0 0 0 0 0 0 0 0 0 0 0 0 -0 -0 0 0 0 0 0 0 0 0 0 0 -0 -0 -0 0
0 0 0 0 0 0 0 0 0 0 0 0 -0 0 0 0 0 0 0 0 0 0 0 0 0 0 0 0 0 0 0 0 0 0 0 0 0 0 0 0 0 0 0 0
0 0 0 0 0 0 0 0 0 0 0 0 0 0 0 0 0 0 0 0 0 0 0 0 0 0 0 0 0 0 0 0 0 0 0 0 0 0 0 0 0 0 0 0
0 0 0 0 0 0 0 0 0 0 0 0 0 0 0 0 0 0 0 0 0 0 0 0 0 0 0 0 0 0 0 0 0 0 0 0 0 0 0 0 0 0 0 0
0 0 0 0 0 0 0 0 0 0 0 0 0 -0 0 0 0 0 0 0 0 0 0 0 0 0 0 0 0 0 0 0 0 0 0 0 0 0 0 0 0 0 0 0
0 0 0 0 0 0 0 0 0 0 0 0 0 0 0 0 0 0 0 0 0 0 0 0 0 0 0 0 0 0 0 0 0 0 0 0 0 0 0 0 0 0 0 0
0 0 0 0 0 0 0 0 0 0 0 0 0 0 0 0 0 0 0 0 0 0 0 0 0 0 0 0 0 0 0 0 0 0 0 0 0 0 0 0 0 0 0 0
0 0 0 0 0 0 0 0 0 0 0 0 0 0 0 0 0 0 0 0 0 0 0 0 0 0 0 0 0 0 0 0 0 0 0 0 0 0 0 0 0 0 0 0
0 0 0 0 0 0 0 0 0 0 0 0 0 0 0 0 0 0 0 0 0 0 0 0 0 0 0 0 0 0 0 0 0 0 0 0 0 0 0 0 0 0 0 0
0 0 0 0 0 0 0 0 0 0 0 0 0 0 0 0 0 0 0 0 0 0 0 0 0 0 0 0 0 0 0 0 0 0 0 0 0 0 0 0 0 0 0 0
0 0 0 0 0 0 0 0 0 0 0 0 0 0 0 0 0 0 0 0 0 0 0 0 0 0 0 0 0 0 0 0 0 0 0 0 0 0 0 0 0 0 0 0
0 0 0 0 0 0 0 0 0 0 0 0 0 0 0 0 0 0 0 0 0 0 0 0 0 0 0 0 0 0 0 0 0 0 0 0 0 0 0 0 0 0 0 0
0 0 0 0 0 0 0 0 0 0 0 0 0 0 0 0 0 0 0 0 0 0 0 0 0 0 0 0 0 0 0 0 0 0 0 0 0 0 0 0 0 0 0 0
0 0 0 0 0 0 0 0 0 0 0 0 0 0 0 0 0 0 0 0 0 0 0 0 0 0 0 0 0 0 0 0 0 0 0 0 0 0 0 0 0 0 0 0
0 0 0 0 0 0 0 0 0 0 0 0 0 0 0 0 0 0 0 0 0 0 0 0 0 0 0 0 0 0 0 0 0 0 0 0 0 0 0 0 0 0 0 0
0 0 0 0 0 0 0 0 0 0 0 0 0 0 0 0 0 0 0 0 0 0 0 0 0 0 0 0 0 0 0 0 0 0 0 0 0 0 0 0 0 0 0 0
Wind_Speed_500mb
37 27 31 18 28 32 36 36 19 18 13 20 22 32 44 47 58 59 68 85 83 79 69 62 54 52 46 38 41 41 35 26 23 25 32 32 35 36 37 36 34 37 35 30
6 21 21 9 17 28 40 36 28 19 20 19 44 21 12 41 66 69 78 90 89 85 77 69 62 58 53 45 43 43 36 31 30 31 37 35 35 35 37 37 34 33 31 28
12 29 20 3 19 27 35 21 32 24 25 14 18 16 41 51 76 84 87 92 95 94 89 77 69 63 61 54 47 43 38 37 35 35 38 38 36 37 36 36 35 33 30 26
11 15 15 10 15 29 27 11 13 8 17 18 46 58 63 78 85 85 93 98 99 99 95 86 73 68 65 61 56 48 43 41 39 39 37 40 38 36 35 35 33 32 30 27
14 5 2 6 13 18 18 23 32 23 21 14 18 42 41 74 77 84 100 100 98 99 101 93 83 73 72 72 67 59 51 46 45 43 42 41 40 38 36 35 34 32 29 28
8 14 18 11 11 18 13 18 12 24 17 9 19 23 20 72 76 86 89 91 97 97 101 98 92 83 79 80 81 73 62 51 47 45 44 45 43 40 37 35 32 30 27 23
5 6 8 7 19 35 20 12 27 32 18 10 10 36 50 70 70 81 89 92 95 93 102 111 100 94 90 89 91 82 70 58 52 51 47 47 45 42 38 35 32 29 26 26
7 7 9 25 14 21 21 21 20 17 20 17 11 23 28 24 64 77 94 89 93 100 102 108 105 102 101 102 93 86 80 71 62 58 56 53 53 49 45 41 37 35 35 36
14 13 18 61 32 60 43 32 42 32 17 16 17 40 43 44 50 80 89 102 106 106 102 106 108 110 109 107 101 95 90 82 73 66 65 61 60 59 56 53 50 47 47 47
10 14 20 61 60 44 45 43 41 28 18 13 31 56 51 38 42 53 81 99 108 105 102 107 109 111 109 109 106 102 99 91 83 75 74 73 70 65 61 60 61 62 61 60
11 7 10 17 43 39 47 47 46 26 21 25 32 41 22 15 35 63 63 79 93 99 102 106 110 109 111 115 109 107 103 99 90 83 77 83 81 79 76 66 56 59 58 58
11 12 11 13 30 38 45 44 41 29 32 33 30 26 7 12 15 27 58 63 82 95 103 106 107 104 112 117 113 110 106 101 96 90 87 80 84 84 85 76 65 61 56 65
12 33 51 47 28 34 41 28 22 23 13 5 44 32 11 18 30 43 40 53 76 90 97 100 102 105 106 115 114 109 109 101 95 89 89 87 90 86 92 82 91 88 84 86
45 40 25 22 28 39 42 35 17 10 10 13 22 30 26 28 21 31 22 51 46 43 55 87 102 99 100 107 109 106 105 103 96 87 87 86 82 91 88 83 81 74 80 85
20 20 24 22 24 29 27 19 11 16 13 11 32 36 33 36 32 27 14 20 38 47 53 78 96 96 94 96 99 100 101 101 97 88 86 80 75 66 74 76 82 79 72 71
26 21 20 15 13 4 8 12 11 13 20 38 42 40 34 30 28 19 23 20 31 41 54 75 89 82 82 82 86 86 89 90 87 85 82 77 78 68 69 65 63 63 59 53
36 21 11 7 12 6 6 12 7 19 16 20 33 37 29 29 24 16 15 20 22 37 52 69 70 66 63 71 68 74 80 86 84 81 78 67 67 52 45 37 24 20 25 34
35 36 23 7 15 30 23 30 31 17 11 16 23 22 23 14 18 20 22 37 43 41 41 44 53 57 60 65 68 73 76 80 72 70 50 42 43 39 33 15 6 14 25 12
22 24 35 36 34 36 32 26 25 25 27 25 12 7 18 20 30 31 24 34 43 41 41 41 41 46 49 58 52 47 51 51 49 48 44 27 12 22 25 15 25 40 19 17
9 24 12 11 10 16 16 13 12 18 22 25 28 19 5 19 26 27 25 20 34 43 48 47 47 47 44 44 45 33 33 36 32 27 26 17 16 25 17 22 32 35 25 19
13 6 2 17 17 16 13 11 13 4 8 11 9 17 13 20 24 32 24 15 27 35 30 24 22 11 10 20 27 24 15 16 42 59 48 44 46 51 52 44 34 25 22 21
17 12 5 3 9 15 22 29 29 27 17 18 3 6 13 13 29 27 36 42 35 39 51 41 28 22 18 25 21 31 54 66 61 58 62 63 57 52 44 34 28 25 22 20
17 14 9 4 6 15 25 37 39 35 35 34 20 15 14 7 9 36 33 32 29 33 37 39 46 41 44 52 60 74 61 50 58 63 62 56 50 43 35 29 26 23 24 25
14 12 13 17 21 19 25 33 38 39 35 42 33 20 35 43 50 43 12 3 17 29 36 40 46 53 64 61 58 58 64 69 65 59 54 48 44 39 36 33 32 32 30 28
26 15 15 5 13 13 2 9 25 35 36 33 36 28 37 36 29 39 46 49 45 41 47 51 55 65 72 73 74 76 72 63 56 52 47 43 42 42 40 36 32 29 27 27
24 22 17 14 15 7 4 6 17 24 30 34 36 39 40 34 31 48 57 61 62 59 56 55 52 58 62 65 63 60 59 54 48 47 49 50 47 42 35 29 27 26 27 27
17 20 21 23 17 14 12 12 15 23 25 35 42 39 36 41 50 53 61 61 58 59 59 61 60 59 59 57 57 55 53 49 48 52 50 45 37 31 27 27 27 26 23 20
Wind_Direction_500mb
214 178 183 190 190 194 205 219 204 239 238 250 201 198 187 180 191 188 187 190 193 195 199 199 199 194 195 190 185 184 188 185 170 159 158 160 165 168 172 173 171 171 178 176
62 151 151 150 212 214 215 221 229 235 248 234 231 210 157 205 185 189 192 196 197 199 201 201 200 196 197 192 188 192 196 184 173 162 160 159 161 168 174 178 181 183 187 194
152 140 115 230 196 213 228 223 214 225 232 233 232 218 233 198 189 193 196 199 200 202 204 203 201 197 198 197 192 193 191 183 177 168 163 163 160 163 166 167 170 173 175 173
151 131 210 186 164 200 223 219 208 254 253 199 223 212 224 227 204 198 199 202 205 205 207 206 203 200 198 200 197 192 191 184 180 174 169 171 168 164 161 160 160 163 164 164
146 208 55 173 164 155 166 244 203 210 247 198 274 230 229 209 211 214 208 213 214 212 209 206 204 199 198 202 200 196 194 190 185 180 175 174 174 170 165 162 161 161 163 163
142 162 208 187 165 142 104 255 198 192 231 234 120 194 220 201 210 212 217 216 214 213 211 210 206 201 198 203 202 200 197 196 193 188 186 183 178 176 173 169 165 167 169 173
103 105 279 260 142 134 176 228 197 184 198 167 171 223 224 205 228 220 221 220 217 213 214 215 208 203 202 203 206 205 202 200 199 197 195 193 188 187 184 183 185 188 193 203
97 106 226 163 136 170 207 200 189 172 162 166 273 283 308 222 234 221 217 222 217 216 218 215 211 206 205 208 207 208 205 205 205 207 203 199 199 197 199 204 209 214 219 225
168 200 216 184 196 209 221 211 210 205 217 230 251 283 276 269 234 224 228 225 221 220 218 216 213 211 210 213 208 208 208 208 210 213 214 213 207 206 206 213 221 229 237 241
122 211 211 200 207 212 195 207 213 212 217 241 256 259 267 277 266 218 208 209 217 216 215 216 216 214 219 215 211 210 210 211 212 216 218 220 218 217 218 220 225 231 238 245
205 232 146 189 203 212 218 225 228 200 183 198 224 239 262 230 232 204 202 214 221 219 218 221 220 218 220 217 216 212 212 212 213 218 223 223 224 226 228 233 243 246 244 248
201 174 127 146 193 203 207 207 209 212 210 212 189 189 191 203 225 268 235 231 222 219 222 222 224 222 219 218 219 215 213 214 214 218 222 228 230 231 237 242 248 255 260 261
158 128 121 112 115 185 188 180 226 182 144 249 244 238 185 228 204 239 235 216 214 214 219 222 224 224 221 219 220 218 216 215 216 220 226 228 233 239 239 246 247 252 257 261
130 129 103 145 110 116 140 117 125 183 213 268 315 269 280 283 245 299 250 197 195 213 235 233 227 225 225 221 221 220 219 219 218 218 227 231 236 241 248 253 252 255 260 262
107 95 126 137 151 155 152 184 139 131 149 218 267 290 271 261 248 260 300 261 225 261 241 227 231 229 225 223 222 220 221 221 221 223 226 235 243 249 242 247 247 249 260 269
121 117 121 116 107 124 262 244 254 254 193 200 211 258 260 264 241 241 269 300 255 240 225 220 225 227 225 222 221 223 224 224 222 225 228 229 239 250 247 246 250 257 261 258
123 111 128 165 168 10 250 256 248 267 241 227 216 230 239 245 227 231 256 277 235 206 211 209 212 216 215 220 220 223 222 221 223 221 225 234 231 229 224 217 224 235 241 256
119 120 108 119 194 130 123 103 90 90 125 154 130 141 201 187 170 160 175 154 160 149 154 173 189 203 204 208 217 219 218 218 218 222 218 203 207 210 199 194 27 341 299 230
125 136 125 109 136 138 148 128 106 94 75 62 57 97 100 130 131 119 143 162 166 163 155 144 154 166 178 196 195 197 201 198 191 177 174 169 234 281 252 264 305 312 223 178
181 162 162 167 146 146 145 143 119 119 93 69 47 25 29 137 131 138 163 193 183 175 165 152 158 149 137 137 147 138 186 176 173 193 200 214 230 234 213 202 184 159 154 134
246 252 285 208 240 252 241 257 233 199 153 125 61 17 23 177 164 161 151 169 172 185 175 180 195 177 170 209 231 193 192 215 192 198 174 165 155 136 130 131 134 130 115 100
85 99 98 233 246 256 257 260 267 262 228 248 166 73 14 74 182 168 149 154 174 184 169 169 179 194 191 158 159 185 187 186 176 162 147 141 138 134 131 129 121 114 108 105
56 70 85 107 249 252 245 251 259 254 242 227 215 158 161 278 192 139 135 152 155 169 168 166 170 174 172 162 164 165 165 168 161 153 144 137 134 133 130 129 123 113 96 81
70 55 59 30 350 272 243 247 242 237 242 224 208 227 202 181 170 160 175 174 172 172 170 173 185 175 170 172 172 164 154 148 142 136 131 128 129 133 128 118 104 91 82 78
62 70 76 59 353 339 196 182 194 198 208 195 194 202 192 178 201 181 182 192 194 182 165 162 163 168 164 159 155 149 144 140 138 134 133 136 136 128 115 101 93 85 80 76
63 65 121 104 88 83 78 159 155 149 164 167 168 169 169 173 173 163 170 176 173 171 167 164 166 163 155 149 144 140 136 135 136 137 139 132 123 119 114 104 96 91 96 88
81 65 141 130 115 111 94 101 127 139 152 152 148 149 154 158 162 168 170 169 164 156 151 151 151 151 151 150 145 142 142 144 143 134 127 127 125 119 113 105 103 103 101 87
Wind_Speed_850mb
37 27 31 18 28 32 36 36 19 18 13 20 22 32 44 47 58 59 68 85 83 79 69 62 54 52 46 38 41 41 35 26 23 25 32 32 35 36 37 36 34 37 35 30
6 21 21 9 17 28 40 36 28 19 20 19 44 21 12 41 66 69 78 90 89 85 77 69 62 58 53 45 43 43 36 31 30 31 37 35 35 35 37 37 34 33 31 28
12 29 20 3 19 27 35 21 32 24 25 14 18 16 41 51 76 84 87 92 95 94 89 77 69 63 61 54 47 43 38 37 35 35 38 38 36 37 36 36 35 33 30 26
11 15 15 10 15 29 27 11 13 8 17 18 46 58 63 78 85 85 93 98 99 99 95 86 73 68 65 61 56 48 43 41 39 39 37 40 38 36 35 35 33 32 30 27
14 5 2 6 13 18 18 23 32 23 21 14 18 42 41 74 77 84 100 100 98 99 101 93 83 73 72 72 67 59 51 46 45 43 42 41 40 38 36 35 34 32 29 28
8 14 18 11 11 18 13 18 12 24 17 9 19 23 20 72 76 86 89 91 97 97 101 98 92 83 79 80 81 73 62 51 47 45 44 45 43 40 37 35 32 30 27 23
5 6 8 7 19 35 20 12 27 32 18 10 10 36 50 70 70 81 89 92 95 93 102 111 100 94 90 89 91 82 70 58 52 51 47 47 45 42 38 35 32 29 26 26
7 7 9 25 14 21 21 21 20 17 20 17 11 23 28 24 64 77 94 89 93 100 102 108 105 102 101 102 93 86 80 71 62 58 56 53 53 49 45 41 37 35 35 36
14 13 18 61 32 60 43 32 42 32 17 16 17 40 43 44 50 80 89 102 106 106 102 106 108 110 109 107 101 95 90 82 73 66 65 61 60 59 56 53 50 47 47 47
10 14 20 61 60 44 45 43 41 28 18 13 31 56 51 38 42 53 81 99 108 105 102 107 109 111 109 109 106 102 99 91 83 75 74 73 70 65 61 60 61 62 61 60
11 7 10 17 43 39 47 47 46 26 21 25 32 41 22 15 35 63 63 79 93 99 102 106 110 109 111 115 109 107 103 99 90 83 77 83 81 79 76 66 56 59 58 58
11 12 11 13 30 38 45 44 41 29 32 33 30 26 7 12 15 27 58 63 82 95 103 106 107 104 112 117 113 110 106 101 96 90 87 80 84 84 85 76 65 61 56 65
12 33 51 47 28 34 41 28 22 23 13 5 44 32 11 18 30 43 40 53 76 90 97 100 102 105 106 115 114 109 109 101 95 89 89 87 90 86 92 82 91 88 84 86
45 40 25 22 28 39 42 35 17 10 10 13 22 30 26 28 21 31 22 51 46 43 55 87 102 99 100 107 109 106 105 103 96 87 87 86 82 91 88 83 81 74 80 85
20 20 24 22 24 29 27 19 11 16 13 11 32 36 33 36 32 27 14 20 38 47 53 78 96 96 94 96 99 100 101 101 97 88 86 80 75 66 74 76 82 79 72 71
26 21 20 15 13 4 8 12 11 13 20 38 42 40 34 30 28 19 23 20 31 41 54 75 89 82 82 82 86 86 89 90 87 85 82 77 78 68 69 65 63 63 59 53
36 21 11 7 12 6 6 12 7 19 16 20 33 37 29 29 24 16 15 20 22 37 52 69 70 66 63 71 68 74 80 86 84 81 78 67 67 52 45 37 24 20 25 34
35 36 23 7 15 30 23 30 31 17 11 16 23 22 23 14 18 20 22 37 43 41 41 44 53 57 60 65 68 73 76 80 72 70 50 42 43 39 33 15 6 14 25 12
22 24 35 36 34 36 32 26 25 25 27 25 12 7 18 20 30 31 24 34 43 41 41 41 41 46 49 58 52 47 51 51 49 48 44 27 12 22 25 15 25 40 19 17
9 24 12 11 10 16 16 13 12 18 22 25 28 19 5 19 26 27 25 20 34 43 48 47 47 47 44 44 45 33 33 36 32 27 26 17 16 25 17 22 32 35 25 19
13 6 2 17 17 16 13 11 13 4 8 11 9 17 13 20 24 32 24 15 27 35 30 24 22 11 10 20 27 24 15 16 42 59 48 44 46 51 52 44 34 25 22 21
17 12 5 3 9 15 22 29 29 27 17 18 3 6 13 13 29 27 36 42 35 39 51 41 28 22 18 25 21 31 54 66 61 58 62 63 57 52 44 34 28 25 22 20
17 14 9 4 6 15 25 37 39 35 35 34 20 15 14 7 9 36 33 32 29 33 37 39 46 41 44 52 60 74 61 50 58 63 62 56 50 43 35 29 26 23 24 25
14 12 13 17 21 19 25 33 38 39 35 42 33 20 35 43 50 43 12 3 17 29 36 40 46 53 64 61 58 58 64 69 65 59 54 48 44 39 36 33 32 32 30 28
26 15 15 5 13 13 2 9 25 35 36 33 36 28 37 36 29 39 46 49 45 41 47 51 55 65 72 73 74 76 72 63 56 52 47 43 42 42 40 36 32 29 27 27
24 22 17 14 15 7 4 6 17 24 30 34 36 39 40 34 31 48 57 61 62 59 56 55 52 58 62 65 63 60 59 54 48 47 49 50 47 42 35 29 27 26 27 27
17 20 21 23 17 14 12 12 15 23 25 35 42 39 36 41 50 53 61 61 58 59 59 61 60 59 59 57 57 55 53 49 48 52 50 45 37 31 27 27 27 26 23 20
Wind_Direction_850mb
214 178 183 190 190 194 205 219 204 239 238 250 201 198 187 180 191 188 187 190 193 195 199 199 199 194 195 190 185 184 188 185 170 159 158 160 165 168 172 173 171 171 178 176
62 151 151 150 212 214 215 221 229 235 248 234 231 210 157 205 185 189 192 196 197 199 201 201 200 196 197 192 188 192 196 184 173 162 160 159 161 168 174 178 181 183 187 194
152 140 115 230 196 213 228 223 214 225 232 233 232 218 233 198 189 193 196 199 200 202 204 203 201 197 198 197 192 193 191 183 177 168 163 163 160 163 166 167 170 173 175 173
151 131 210 186 164 200 223 219 208 254 253 199 223 212 224 227 204 198 199 202 205 205 207 206 203 200 198 200 197 192 191 184 180 174 169 171 168 164 161 160 160 163 164 164
146 208 55 173 164 155 166 244 203 210 247 198 274 230 229 209 211 214 208 213 214 212 209 206 204 199 198 202 200 196 194 190 185 180 175 174 174 170 165 162 161 161 163 163
142 162 208 187 165 142 104 255 198 192 231 234 120 194 220 201 210 212 217 216 214 213 211 210 206 201 198 203 202 200 197 196 193 188 186 183 178 176 173 169 165 167 169 173
103 105 279 260 142 134 176 228 197 184 198 167 171 223 224 205 228 220 221 220 217 213 214 215 208 203 202 203 206 205 202 200 199 197 195 193 188 187 184 183 185 188 193 203
97 106 226 163 136 170 207 200 189 172 162 166 273 283 308 222 234 221 217 222 217 216 218 215 211 206 205 208 207 208 205 205 205 207 203 199 199 197 199 204 209 214 219 225
168 200 216 184 196 209 221 211 210 205 217 230 251 283 276 269 234 224 228 225 221 220 218 216 213 211 210 213 208 208 208 208 210 213 214 213 207 206 206 213 221 229 237 241
122 211 211 200 207 212 195 207 213 212 217 241 256 259 267 277 266 218 208 209 217 216 215 216 216 214 219 215 211 210 210 211 212 216 218 220 218 217 218 220 225 231 238 245
205 232 146 189 203 212 218 225 228 200 183 198 224 239 262 230 232 204 202 214 221 219 218 221 220 218 220 217 216 212 212 212 213 218 223 223 224 226 228 233 243 246 244 248
201 174 127 146 193 203 207 207 209 212 210 212 189 189 191 203 225 268 235 231 222 219 222 222 224 222 219 218 219 215 213 214 214 218 222 228 230 231 237 242 248 255 260 261
158 128 121 112 115 185 188 180 226 182 144 249 244 238 185 228 204 239 235 216 214 214 219 222 224 224 221 219 220 218 216 215 216 220 226 228 233 239 239 246 247 252 257 261
130 129 103 145 110 116 140 117 125 183 213 268 315 269 280 283 245 299 250 197 195 213 235 233 227 225 225 221 221 220 219 219 218 218 227 231 236 241 248 253 252 255 260 262
107 95 126 137 151 155 152 184 139 131 149 218 267 290 271 261 248 260 300 261 225 261 241 227 231 229 225 223 222 220 221 221 221 223 226 235 243 249 242 247 247 249 260 269
121 117 121 116 107 124 262 244 254 254 193 200 211 258 260 264 241 241 269 300 255 240 225 220 225 227 225 222 221 223 224 224 222 225 228 229 239 250 247 246 250 257 261 258
123 111 128 165 168 10 250 256 248 267 241 227 216 230 239 245 227 231 256 277 235 206 211 209 212 216 215 220 220 223 222 221 223 221 225 234 231 229 224 217 224 235 241 256
119 120 108 119 194 130 123 103 90 90 125 154 130 141 201 187 170 160 175 154 160 149 154 173 189 203 204 208 217 219 218 218 218 222 218 203 207 210 199 194 27 341 299 230
125 136 125 109 136 138 148 128 106 94 75 62 57 97 100 130 131 119 143 162 166 163 155 144 154 166 178 196 195 197 201 198 191 177 174 169 234 281 252 264 305 312 223 178
181 162 162 167 146 146 145 143 119 119 93 69 47 25 29 137 131 138 163 193 183 175 165 152 158 149 137 137 147 138 186 176 173 193 200 214 230 234 213 202 184 159 154 134
246 252 285 208 240 252 241 257 233 199 153 125 61 17 23 177 164 161 151 169 172 185 175 180 195 177 170 209 231 193 192 215 192 198 174 165 155 136 130 131 134 130 115 100
85 99 98 233 246 256 257 260 267 262 228 248 166 73 14 74 182 168 149 154 174 184 169 169 179 194 191 158 159 185 187 186 176 162 147 141 138 134 131 129 121 114 108 105
56 70 85 107 249 252 245 251 259 254 242 227 215 158 161 278 192 139 135 152 155 169 168 166 170 174 172 162 164 165 165 168 161 153 144 137 134 133 130 129 123 113 96 81
70 55 59 30 350 272 243 247 242 237 242 224 208 227 202 181 170 160 175 174 172 172 170 173 185 175 170 172 172 164 154 148 142 136 131 128 129 133 128 118 104 91 82 78
62 70 76 59 353 339 196 182 194 198 208 195 194 202 192 178 201 181 182 192 194 182 165 162 163 168 164 159 155 149 144 140 138 134 133 136 136 128 115 101 93 85 80 76
63 65 121 104 88 83 78 159 155 149 164 167 168 169 169 173 173 163 170 176 173 171 167 164 166 163 155 149 144 140 136 135 136 137 139 132 123 119 114 104 96 91 96 88
81 65 141 130 115 111 94 101 127 139 152 152 148 149 154 158 162 168 170 169 164 156 151 151 151 151 151 150 145 142 142 144 143 134 127 127 125 119 113 105 103 103 101 87